Regional Weather Roundup
Issued by NWS

Home | Current Version | Previous Version | Text Only | Print | Product List | Glossary Off
Versions: 1 2 3 4 5 6 7 8 9 10 11 12 13 14 15 16 17 18 19 20 21 22 23 24 25 26 27 28

000
ASUS45 KCYS 152310
RWRWY

WYOMING REGIONAL WEATHER ROUNDUP
NATIONAL WEATHER SERVICE CHEYENNE WY
500 PM MDT SUN OCT 15 2017

NOTE:  "FAIR" INDICATES FEW OR NO CLOUDS BELOW 12,000 FEET
WITH NO SIGNIFICANT WEATHER AND/OR OBSTRUCTIONS TO VISIBILITY.

WYZ001-160000-
YELLOWSTONE NATIONAL PARK

CITY           SKY/WX    TMP DP  RH WIND       PRES   REMARKS
LK YELLOWSTONE   N/A     44  25  47 VRB5      30.49S
W YELLOWSTONE  NOT AVBL

$$
WYZ002>013-054>058-071-098>099-160000-
NORTHERN WYOMING

CITY           SKY/WX    TMP DP  RH WIND       PRES   REMARKS
JACKSON        FAIR      46  23  40 S3        30.47F
CODY           FAIR      60  25  26 E10       30.30F
GREYBULL       FAIR      58  23  26 S8        30.31F
WORLAND        FAIR      59  26  28 E6        30.31F
SHERIDAN       FAIR      60  26  27 SE5       30.27F
BUFFALO        FAIR      56  22  26 E5        30.29F
GILLETTE       FAIR      58  26  29 SE8       30.27F
HULETT         FAIR      55  28  35 W10G17    30.30F
NEWCASTLE      FAIR      55  23  28 W10       30.33F

$$
WYZ014>020-022>026-101>103-160000-
CENTRAL WYOMING

CITY           SKY/WX    TMP DP  RH WIND       PRES   REMARKS
BIG PINEY      FAIR      55  20  25 SW5       30.45F
PINEDALE       FAIR      54  21  28 W3        30.46S
DUBOIS         FAIR      52  23  32 NW16G24   30.39S
LANDER         FAIR      57  28  33 SE7       30.34F
RIVERTON       FAIR      56  28  34 E5        30.35F
CASPER         FAIR      60  19  20 W14       30.34F
DOUGLAS        FAIR      61  22  22 NW14      30.33F

$$
WYZ021-027>030-104>119-160000-
SOUTHERN WYOMING

CITY           SKY/WX    TMP DP  RH WIND       PRES   REMARKS
EVANSTON       FAIR      60  12  15 W6        30.45F
KEMMERER       FAIR      55   9  15 W10       30.47F
FORT BRIDGER   FAIR      58  11  15 SE6       30.48S
ROCK SPRINGS   FAIR      55  10  16 W10       30.45F
DIXON          FAIR      59  11  14 SW6       30.48F
RAWLINS        FAIR      55  12  18 SW17      30.44F
SARATOGA       FAIR      55  14  19 W13       30.46S
LARAMIE        FAIR      58  18  21 W13       30.41S
CHEYENNE       FAIR      57  21  24 S13       30.40S
TORRINGTON     FAIR      61  18  18 CALM      30.32F
PINE BLUFFS    FAIR      61  21  21 NW8       30.38S

$$




USA.gov is the U.S. government's official web portal to all federal, state and local government web resources and services.